Weather History for Farmington, NM

Change the Weather History Date:

Friday, November 1, 2013

  Actual Average Record
Temperature  
Mean Temperature 42 °F -  
Max Temperature 57 °F 57 °F 75 °F (2008)
Min Temperature 28 °F 31 °F 18 °F (1991)
Degree Days  
Heating Degree Days 22    
Moisture  
Dew Point 27 °F    
Average Humidity 57    
Maximum Humidity 85    
Minimum Humidity 17    
Precipitation  
Precipitation 0.00 in - - ()
Sea Level Pressure  
Sea Level Pressure 30.22 in    
Wind  
Wind Speed 7 mph (West)    
Max Wind Speed 22 mph    
Max Gust Speed 32 mph    
Visibility 10 miles    
Events      
Averages and records for this station are not official NWS values.
T = Trace of Precipitation, MM = Missing Value Source: NWS Daily Summary

Daily Weather History Graph

Daily Weather History Graph

Search for Another Location

Airport:

Trip Planner

Search our weather history database for the weather conditions in past years. The results will help you decide how hot, cold, wet, or windy it might be!

Date:

Astronomy

Nov. 01, 2013 Rise Set
Actual Time 7:36 AM MDT 6:15 PM MDT
Civil Twilight 7:10 AM MDT 6:42 PM MDT
Nautical Twilight 6:39 AM MDT 7:12 PM MDT
Astronomical Twilight 6:09 AM MDT 7:43 PM MDT
Moon 5:35 AM MDT (11/1) 5:08 PM MDT (11/1)
Length of Visible Light 11h 32m
Length of Day
10h 38m
Waning Crescent, 4% of the Moon is Illuminated
Nov 1
Waning Crescent
Nov 3
New
Nov 9
First Quarter
Nov 17
Full
Nov 25
Last Quarter

Hourly Weather History & Observations

Time (MDT) Temp. Windchill Dew Point Humidity Pressure Visibility Wind Dir Wind Speed Gust Speed Precip Events Conditions
12:53 AM 36.0 °F - 27.0 °F 70% 30.14 in 10.0 mi Calm Calm - N/A   Clear
1:53 AM 33.1 °F 27.7 °F 26.1 °F 75% 30.15 in 10.0 mi West 5.8 mph - N/A   Clear
2:53 AM 32.0 °F 26.4 °F 27.0 °F 82% 30.16 in 10.0 mi West 5.8 mph - N/A   Clear
3:53 AM 33.1 °F 28.7 °F 27.0 °F 78% 30.17 in 10.0 mi NW 4.6 mph - N/A   Clear
4:53 AM 30.9 °F 26.2 °F 25.0 °F 79% 30.18 in 10.0 mi West 4.6 mph - N/A   Clear
5:53 AM 30.0 °F - 25.0 °F 82% 30.20 in 10.0 mi Calm Calm - N/A   Clear
6:53 AM 30.0 °F 24.1 °F 25.0 °F 82% 30.22 in 10.0 mi SW 5.8 mph - N/A   Clear
7:53 AM 28.9 °F 22.8 °F 25.0 °F 85% 30.26 in 10.0 mi WSW 5.8 mph - N/A   Clear
8:53 AM 32.0 °F 28.7 °F 27.0 °F 82% 30.28 in 10.0 mi SSE 3.5 mph - N/A   Clear
9:53 AM 39.0 °F 36.8 °F 28.0 °F 65% 30.27 in 10.0 mi Variable 3.5 mph - N/A   Clear
10:53 AM 46.0 °F 42.5 °F 30.0 °F 54% 30.25 in 10.0 mi West 6.9 mph - N/A   Clear
11:53 AM 50.0 °F - 30.0 °F 46% 30.23 in 10.0 mi West 15.0 mph 20.7 mph N/A   Clear
12:53 PM 53.1 °F - 30.0 °F 41% 30.21 in 10.0 mi West 18.4 mph - N/A   Clear
1:53 PM 55.0 °F - 28.9 °F 37% 30.18 in 10.0 mi West 17.3 mph 28.8 mph N/A   Clear
2:53 PM 57.0 °F - 24.1 °F 28% 30.16 in 10.0 mi West 18.4 mph 25.3 mph N/A   Clear
3:53 PM 57.0 °F - 27.0 °F 32% 30.16 in 10.0 mi WNW 21.9 mph 28.8 mph N/A   Clear
4:53 PM 55.9 °F - 26.1 °F 32% 30.17 in 10.0 mi West 21.9 mph 32.2 mph N/A   Clear
5:53 PM 53.1 °F - 26.1 °F 35% 30.19 in 10.0 mi West 21.9 mph - N/A   Clear
6:53 PM 48.9 °F - 27.0 °F 43% 30.23 in 10.0 mi West 11.5 mph 18.4 mph N/A   Clear
7:53 PM 48.0 °F - 27.0 °F 44% 30.26 in 10.0 mi West 12.7 mph - N/A   Clear
8:53 PM 44.1 °F 40.1 °F 27.0 °F 51% 30.27 in 10.0 mi WSW 6.9 mph - N/A   Clear
9:53 PM 42.1 °F 36.6 °F 28.0 °F 58% 30.27 in 10.0 mi SW 9.2 mph - N/A   Clear
10:53 PM 37.9 °F 34.4 °F 27.0 °F 65% 30.26 in 10.0 mi North 4.6 mph - N/A   Clear
11:53 PM 34.0 °F 28.8 °F 25.0 °F 70% 30.29 in 10.0 mi East 5.8 mph - N/A   Clear